RESOURCESAT-2

Last updated on Sun Jun 21 2026 00:02:51 GMT+0000 (Coordinated Universal Time)

1 37387U 11015A 26171.46738348 .00000002 00000+0 20960-4 0 9998 2 37387 98.7643 238.8867 0010271 244.9511 115.0601 14.21600287786642
UTC large
Height (km)
Speed (km/s)
/
Latitude / Longitude
Inclination (degrees)
Orbital Period (minutes)
Azimuth
Elevation
Range (km)
Doppler Factor

Next 0 passes for location: London (51.5072 / 0.1276)

No passes found over London.
RESOURCESAT-2